Los Angeles, CA

10:34 AM PDT on May 21, 2018 (GMT -0700)
Los Angeles International

Weather History for KLAX - February, 2013

Change the Weather History Date:

Thursday, February 14, 2013

  Actual Average Record
Temperature  
Mean Temperature 58 °F 57 °F  
Max Temperature 70 °F 64 °F 85 °F (1985)
Min Temperature 46 °F 50 °F 34 °F (1949)
Degree Days  
Heating Degree Days 7 8  
Month to date heating degree days 135 112  
Since 1 July heating degree days 757 816  
Cooling Degree Days 0 0  
Month to date cooling degree days 0 0  
Year to date cooling degree days 6 4  
Growing Degree Days 8 (Base 50)    
Moisture  
Dew Point 48 °F    
Average Humidity 70    
Maximum Humidity 100    
Minimum Humidity 40    
Precipitation  
Precipitation 0.00 in 0.12 in 2.66 in (1986)
Month to date precipitation 0.07 1.57  
Year to date precipitation 1.37 4.28  
Since 1 July precipitation 5.65  
Sea Level Pressure  
Sea Level Pressure 30.14 in    
Wind  
Wind Speed 5 mph (SW)    
Max Wind Speed 16 mph    
Max Gust Speed 20 mph    
Visibility 7 miles    
Events Fog    
T = Trace of Precipitation, MM = Missing Value Source: NWS Daily Summary

Daily Weather History Graph

Daily Weather History Graph

Search for Another Location

Airport or City:

Astronomy

Feb. 14, 2013 Rise Set
Actual Time 6:38 AM PST 5:37 PM PST
Civil Twilight 6:13 AM PST 6:02 PM PST
Nautical Twilight 5:44 AM PST 6:32 PM PST
Astronomical Twilight 5:14 AM PST 7:01 PM PST
Moon 8:59 AM PST (2/14) 10:27 PM PST (2/14)
Length of Visible Light 11h 49m
Length of Day
10h 58m
Waxing Crescent, 22% of the Moon is Illuminated
Feb 14
Waxing Crescent
Feb 17
First Quarter
Feb 25
Full
Mar 4
Last Quarter
Mar 11
New

Hourly Weather History & Observations

Time (PST) Temp. Dew Point Humidity Pressure Visibility Wind Dir Wind Speed Gust Speed Precip Events Conditions
12:53 AM 51.1 °F 48.0 °F 89% 30.17 in 10.0 mi ESE 3.5 mph - N/A   Partly Cloudy
1:53 AM 51.1 °F 48.0 °F 89% 30.17 in 10.0 mi Calm Calm - N/A   Partly Cloudy
2:46 AM 50.0 °F 46.4 °F 87% 30.15 in 10.0 mi Variable 4.6 mph - N/A   Scattered Clouds
2:53 AM 50.0 °F 46.0 °F 86% 30.14 in 10.0 mi NE 4.6 mph - N/A   Scattered Clouds
3:53 AM 48.9 °F 43.0 °F 80% 30.15 in 10.0 mi Calm Calm - N/A   Scattered Clouds
4:53 AM 46.0 °F 43.0 °F 89% 30.15 in 10.0 mi Calm Calm - N/A   Scattered Clouds
5:53 AM 46.9 °F 39.9 °F 77% 30.14 in 10.0 mi Calm Calm - N/A   Partly Cloudy
6:53 AM 48.9 °F 36.0 °F 61% 30.14 in 10.0 mi ESE 3.5 mph - N/A   Partly Cloudy
7:53 AM 51.1 °F 37.9 °F 61% 30.16 in 10.0 mi Variable 3.5 mph - N/A   Partly Cloudy
8:53 AM 55.9 °F 37.9 °F 51% 30.18 in 10.0 mi Calm Calm - N/A   Partly Cloudy
9:53 AM 59.0 °F 42.1 °F 53% 30.22 in 10.0 mi West 4.6 mph - N/A   Partly Cloudy
10:53 AM 62.1 °F 43.0 °F 50% 30.19 in 10.0 mi Variable 5.8 mph - N/A   Partly Cloudy
11:53 AM 66.0 °F 41.0 °F 40% 30.15 in 10.0 mi SSW 3.5 mph - 0.73 in   Partly Cloudy
12:53 PM 64.9 °F 44.1 °F 47% 30.11 in 10.0 mi West 10.4 mph - N/A   Scattered Clouds
1:53 PM 64.9 °F 45.0 °F 48% 30.09 in 10.0 mi West 10.4 mph - N/A   Partly Cloudy
2:53 PM 61.0 °F 51.1 °F 70% 30.08 in 10.0 mi West 11.5 mph - N/A   Scattered Clouds
3:53 PM 60.1 °F 52.0 °F 75% 30.09 in 10.0 mi West 13.8 mph - N/A   Partly Cloudy
4:21 PM 59.0 °F 53.6 °F 82% 30.09 in 2.0 mi West 16.1 mph - N/A   Scattered Clouds
4:33 PM 55.4 °F 53.6 °F 94% 30.09 in 1.0 mi West 12.7 mph - N/A   Scattered Clouds
4:43 PM 55.4 °F 51.8 °F 88% 30.09 in 4.0 mi West 11.5 mph - N/A   Scattered Clouds
4:53 PM 55.4 °F 51.8 °F 88% 30.09 in 7.0 mi West 12.7 mph - N/A   Scattered Clouds
5:05 PM 55.4 °F 51.8 °F 88% 30.09 in 1.0 mi West 10.4 mph - N/A   Mostly Cloudy
5:26 PM 53.6 °F 51.8 °F 94% 30.09 in 1.0 mi West 8.1 mph - N/A   Scattered Clouds
5:53 PM 53.1 °F 51.1 °F 93% 30.11 in 1.5 mi West 9.2 mph - N/A   Scattered Clouds
6:12 PM 53.6 °F 51.8 °F 94% 30.11 in 4.0 mi West 5.8 mph - N/A   Partly Cloudy
6:53 PM 53.1 °F 51.1 °F 93% 30.13 in 6.0 mi West 5.8 mph - N/A   Partly Cloudy
7:53 PM 55.0 °F 52.0 °F 89% 30.13 in 8.0 mi West 4.6 mph - N/A   Partly Cloudy
8:53 PM 55.0 °F 52.0 °F 89% 30.14 in 8.0 mi SSE 3.5 mph - N/A   Clear
9:12 PM 53.6 °F 51.8 °F 94% 30.15 in 2.5 mi SSE 4.6 mph - N/A   Partly Cloudy
9:34 PM 51.8 °F 51.8 °F 100% 30.15 in 2.5 mi ESE 3.5 mph - N/A   Partly Cloudy
9:43 PM 51.8 °F 51.8 °F 100% 30.15 in 0.2 mi SSE 3.5 mph - N/A Fog Fog
9:53 PM 52.0 °F 52.0 °F 100% 30.15 in 0.5 mi ESE 4.6 mph - N/A Fog Fog
10:17 PM 51.8 °F 51.8 °F 100% 30.16 in 3.0 mi East 3.5 mph - N/A   Partly Cloudy
10:30 PM 51.8 °F 50.0 °F 94% 30.16 in 6.0 mi East 4.6 mph - N/A   Partly Cloudy
10:53 PM 52.0 °F 50.0 °F 93% 30.15 in 9.0 mi East 5.8 mph - N/A   Clear
11:53 PM 55.0 °F 46.9 °F 74% 30.15 in 10.0 mi ESE 3.5 mph - N/A   Clear